The Dalles, WA

10:40 PM PDT on April 24, 2017 (GMT -0700)
Columbia Gorge Regional-The Dalles

Weather History for KDLS - August, 2012

Change the Weather History Date:

Tuesday, August 14, 2012

  Actual Average Record
Temperature  
Mean Temperature 80 °F -  
Max Temperature 99 °F 87 °F 105 °F (1953)
Min Temperature 63 °F 60 °F 47 °F (1948)
Cooling Degree Days 16    
Growing Degree Days 30 (Base 50)    
Moisture  
Dew Point 54 °F    
Average Humidity 40    
Maximum Humidity 59    
Minimum Humidity 24    
Precipitation  
Precipitation 0.00 in - - ()
Sea Level Pressure  
Sea Level Pressure 29.81 in    
Wind  
Wind Speed 11 mph (NW)    
Max Wind Speed 24 mph    
Max Gust Speed 32 mph    
Visibility 10 miles    
Events      
Averages and records for this station are not official NWS values.
T = Trace of Precipitation, MM = Missing Value Source: NWS Daily Summary

Daily Weather History Graph

Daily Weather History Graph

Search for Another Location

Airport or City:

Trip Planner

Search our weather history database for the weather conditions in past years. The results will help you decide how hot, cold, wet, or windy it might be!

Date:

Astronomy

Aug. 14, 2012 Rise Set
Actual Time 6:04 AM PDT 8:13 PM PDT
Civil Twilight 5:32 AM PDT 8:45 PM PDT
Nautical Twilight 4:51 AM PDT 9:25 PM PDT
Astronomical Twilight 4:07 AM PDT 10:09 PM PDT
Moon 3:02 AM PDT (8/14) 6:14 PM PDT (8/14)
Length of Visible Light 15h 13m
Length of Day
14h 08m
Waning Crescent, 9% of the Moon is Illuminated
Aug 14
Waning Crescent
Aug 17
New
Aug 24
First Quarter
Aug 31
Full
Sep 8
Last Quarter

Hourly Weather History & Observations

Time (PDT) Temp. Heat Index Dew Point Humidity Pressure Visibility Wind Dir Wind Speed Gust Speed Precip Events Conditions
12:53 AM 77.0 °F - 57.0 °F 50% 29.86 in 10.0 mi NNW 12.7 mph 25.3 mph N/A   Clear
1:53 AM 75.9 °F - 55.9 °F 50% 29.86 in 10.0 mi NNW 11.5 mph 23.0 mph N/A   Clear
2:53 AM 73.0 °F - 57.0 °F 57% 29.87 in 10.0 mi NW 13.8 mph - N/A   Clear
3:53 AM 70.0 °F - 55.0 °F 59% 29.87 in 10.0 mi NW 3.5 mph - N/A   Clear
4:53 AM 64.9 °F - 48.9 °F 56% 29.88 in 10.0 mi South 3.5 mph - N/A   Clear
5:53 AM 63.0 °F - 48.0 °F 58% 29.88 in 10.0 mi ESE 4.6 mph - N/A   Clear
6:53 AM 64.0 °F - 46.0 °F 52% 29.90 in 10.0 mi SSE 3.5 mph - N/A   Clear
7:53 AM 70.0 °F - 48.0 °F 46% 29.89 in 10.0 mi Calm Calm - N/A   Clear
8:53 AM 73.9 °F - 54.0 °F 50% 29.88 in 10.0 mi WSW 4.6 mph - N/A   Clear
9:53 AM 79.0 °F - 54.0 °F 42% 29.87 in 10.0 mi NNW 12.7 mph 17.3 mph N/A   Clear
10:53 AM 84.9 °F 83.2 °F 53.1 °F 33% 29.85 in 10.0 mi WNW 9.2 mph 16.1 mph N/A   Clear
11:53 AM 89.1 °F - 52.0 °F 28% 29.81 in 10.0 mi NW 20.7 mph 26.5 mph N/A   Clear
12:53 PM 91.0 °F 88.5 °F 53.1 °F 27% 29.79 in 10.0 mi NW 20.7 mph 28.8 mph N/A   Clear
1:53 PM 93.9 °F 91.4 °F 53.1 °F 25% 29.77 in 10.0 mi NNW 19.6 mph 27.6 mph N/A   Clear
2:53 PM 95.0 °F 93.4 °F 55.9 °F 27% 29.75 in 10.0 mi NW 13.8 mph - N/A   Clear
3:53 PM 98.1 °F 96.4 °F 55.0 °F 24% 29.73 in 10.0 mi WNW 18.4 mph 29.9 mph N/A   Clear
4:53 PM 97.0 °F 95.3 °F 55.9 °F 25% 29.72 in 10.0 mi WNW 24.2 mph - N/A   Clear
5:53 PM 95.0 °F 93.7 °F 57.0 °F 28% 29.71 in 10.0 mi WNW 19.6 mph 28.8 mph N/A   Clear
6:53 PM 93.0 °F 91.7 °F 57.0 °F 30% 29.71 in 10.0 mi WNW 11.5 mph - N/A   Clear
7:53 PM 88.0 °F 86.5 °F 55.9 °F 34% 29.71 in 10.0 mi NW 12.7 mph - N/A   Clear
8:53 PM 87.1 °F 85.7 °F 55.9 °F 35% 29.72 in 10.0 mi WNW 23.0 mph 32.2 mph N/A   Clear
9:53 PM 84.0 °F 83.0 °F 55.9 °F 38% 29.75 in 10.0 mi ESE 4.6 mph - N/A   Clear
10:53 PM 82.0 °F 81.4 °F 55.0 °F 39% 29.77 in 10.0 mi WNW 8.1 mph - N/A   Clear
11:53 PM 78.1 °F - 59.0 °F 52% 29.78 in 10.0 mi NW 5.8 mph - N/A   Clear